Location: Helsinki
(60.1699°N, 24.9384°E)
Time: 13:37:08
(UTC+02:00)

Transit 4A - Pass Details

Date: 29 October 2020
Orbit: 862 x 982 km, 66.8° (Epoch: 26 November)

Event Time Altitude Azimuth Distance (km) Brightness Sun altitude
Rises 17:29:52 0° 243° (WSW) 3,639 12.9 -7.7°
Reaches altitude 10° 17:32:25 10° 245° (WSW) 2,708 11.9 -8.0°
Maximum altitude 17:38:46 70° 330° (NNW) 1,041 8.3 -8.8°
Drops below altitude 10° 17:45:13 10° 54° (NE) 2,748 9.8 -9.6°
Enters shadow 17:45:30 - 55° (NE) 2,848 9.9 -9.6°
Sets 17:47:50 0° 57° (ENE) 3,696 - -9.9°
